sat.trackr.live / text

‹ back to catalog

STARLINK-30463

NORAD 57909 · 2023-146U

PAYLOAD ACTIVE UNKNOWN

§ Identity

Operator
Country
US
Launch date
2023-09-20
Launch site
AFETR
Launch vehicle
Mass (kg)
RCS (m²)

Purposes: comms

External: N2YO · Heavens-Above · Gunter

§ Orbital elements

Epoch: 2026-09-19T14:02:13.041024Z

Period
94.27 min
Inclination
43.0016°
Eccentricity
0.0001108
Mean motion
15.27576232 rev/d
Perigee alt
482.3 km
Apogee alt
483.8 km
Semi-major
6,861.2 km
B*
-5.5750e-6
RAAN
299.7229°
Arg perigee
278.6262°
Mean anomaly
81.4465°
Rev number
16,564

§ Raw data

STARLINK-304631 57909U 23146U   26262.58487316 -.00000415  00000+0 -55750-5 0  99942 57909  43.0016 299.7229 0001108 278.6262  81.4465 15.27576232165649

JSON: /api/v1/satellites/57909 · /tle

For live sub-satellite position, see the globe view (requires WebGL).

§ Visibility from observer

Set your observer location to see the next 7 days of passes ≥ 10°. The values pass through the URL so the page stays shareable.

No JS? Fill the form by hand. The geolocation button needs JavaScript.